"Pseudo-MPEC" for CCNG6P2

Created 2025 Feb 7 5:31:08 UT using Find_Orb

Click here for an explanation of pseudo-MPECs

 
 Astrometry: 
     CCNG6P2  C2024 11 12.56098908 30 55.974+12 37 20.59   ~171H 22.47GVNEOCPF52
     CCNG6P2  C2024 11 12.58765908 30 55.582+12 37 21.55   ~171H 22.30GVNEOCPF52
     CCNG6P2  C2024 11 12.60097608 30 55.352+12 37 23.01   ~171H 23.27GVNEOCPF52
     CCNG6P2  C2024 11 28.52089108 24 45.810+13 02 47.92   ~171H 23.57GVNEOCPF51
     CCNG6P2  C2024 12 02.51731008 22 27.221+13 12 20.87   ~171H 22.21GVNEOCPF52
     CCNG6P2  C2024 12 02.52884408 22 26.812+13 12 23.61   ~171H 21.45GVNEOCPF52
     CCNG6P2  C2024 12 02.54038808 22 26.385+13 12 24.89   ~171H 22.13GVNEOCPF52
     CCNG6P2  C2024 12 06.48407608 19 50.320+13 23 11.28   ~171H 23.09GVNEOCPF52
     CCNG6P2  C2024 12 06.49688008 19 49.733+13 23 13.49   ~171H 22.00GVNEOCPF52
     CCNG6P2  C2024 12 06.58966208 19 45.833+13 23 29.71   ~171Hx23.14GVNEOCPF51
     CCNG6P2  C2024 12 22.56299408 05 52.397+14 20 55.76   ~171H 23.05GVNEOCPF52
     CCNG6P2  C2024 12 22.57384008 05 51.715+14 20 58.55   ~171H 22.66GVNEOCPF52
     CCNG6P2  C2024 12 22.58476908 05 51.011+14 21 01.21   ~171H 22.96GVNEOCPF52
     CCNG6P2  C2024 12 22.59565208 05 50.323+14 21 04.09   ~171H 22.19GVNEOCPF52
     CCNG6P2  C2024 12 23.44399308 04 57.340+14 24 42.68   ~171H 22.16GVNEOCPF51
     CCNG6P2  C2024 12 23.46693008 04 55.890+14 24 48.72   ~171H 21.68GVNEOCPF51
     CCNG6P2  C2024 12 23.47844908 04 55.140+14 24 51.61   ~171H 22.23GVNEOCPF51
     CCNG6P2  C2024 12 30.56593807 56 58.057+14 57 25.90   ~171H 21.32GVNEOCPF51
     CCNG6P2  C2024 12 30.57561807 56 57.349+14 57 28.62   ~171H 21.89GVNEOCPF51
     CCNG6P2  C2024 12 30.58533607 56 56.650+14 57 31.28   ~171H 21.47GVNEOCPF51
     CCNG6P2*1C2025 01 03.34215907 52 21.680+15 16 09.80   ~1392 21.65GVNEOCPG96
     CCNG6P2 1C2025 01 03.34727207 52 21.284+15 16 11.17   ~1392 21.76GVNEOCPG96
     CCNG6P2 1C2025 01 03.35240507 52 20.939+15 16 13.30   ~1392 21.12GVNEOCPG96
     CCNG6P2 1C2025 01 03.35754607 52 20.482+15 16 14.88   ~1392 21.65GVNEOCPG96
     CCNG6P2 KC2025 01 03.47944207 52 11.284+15 16 51.60   ~13CH 20.89GVNEOCPI52
     CCNG6P2 KC2025 01 03.48408407 52 10.938+15 16 53.22   ~13CH 21.11GVNEOCPI52
     CCNG6P2 KC2025 01 03.48873007 52 10.542+15 16 54.91   ~13CH 21.42GVNEOCPI52
     CCNG6P2 KC2025 01 03.49337707 52 10.196+15 16 55.88   ~13CH 21.62GVNEOCPI52
     CCNG6P2 KC2025 01 04.26758907 51 11.862+15 20 53.66   ~1472 22.22GVNEOCPI52
     CCNG6P2 KC2025 01 04.27140007 51 11.509+15 20 54.64   ~1472 20.89GVNEOCPI52
     CCNG6P2 KC2025 01 04.27521607 51 11.308+15 20 55.54   ~1472 21.41GVNEOCPI52
     CCNG6P2  C2025 01 05.35276707 49 48.893+15 26 29.86   ~171H 22.28GVNEOCPF51
     CCNG6P2  C2025 01 05.36398007 49 48.019+15 26 33.48   ~171H 21.44GVNEOCPF51
     CCNG6P2  C2025 01 05.37518907 49 47.144+15 26 37.12   ~171H 21.54GVNEOCPF51
     CCNG6P2  C2025 01 05.38641907 49 46.271+15 26 40.21   ~171H 22.58GVNEOCPF51
     CCNG6P2 1C2025 01 06.51948707 48 18.339+15 32 35.23   ~170V 21.45GVNEOCPT12
     CCNG6P2 1C2025 01 06.52132707 48 18.193+15 32 35.79   ~170V 21.31GVNEOCPT12
     CCNG6P2 1C2025 01 06.52534707 48 17.857+15 32 37.00   ~170V 21.41GVNEOCPT12
     CCNG6P2 #C2025 01 09.18335407 44 47.594+15 46 43.30   ~19A2 21.2 rVNEOCPJ13
     CCNG6P2 #C2025 01 09.18517707 44 47.470+15 46 44.07   ~19A2 20.8 rVNEOCPJ13
     CCNG6P2 KB2025 01 17.99890407 32 35.719+16 35 18.28   ~1PC2 21.5 GWNEOCP204
     CCNG6P2 HB2025 01 18.05462207 32 30.900+16 35 36.53   ~1PC2       WNEOCP204
     CCNG6P2 KC2025 01 18.79280407 31 27.87 +16 39 46.0    ~1JAV 20.8 GUNEOCPL06
     CCNG6P2 KC2025 01 18.82581807 31 25.04 +16 39 56.9    ~1JAV 21.0 GUNEOCPL06
     CCNG6P2 KC2025 01 19.84550 07 29 57.463+16 45 41.83   ~1KAV 21.7 GVNEOCPB74
     CCNG6P2 KC2025 01 19.86774 07 29 55.543+16 45 49.14   ~1KAV 21.7 GVNEOCPB74
     CCNG6P2 KC2025 01 19.88541 07 29 53.988+16 45 55.19   ~1KAV 21.6 GVNEOCPB74
     CCNG6P2 3C2025 01 19.89849 07 29 52.87 +16 46 02.7    ~1JN2 20.7 GVNEOCPK93
     CCNG6P2 3C2025 01 19.90226 07 29 52.52 +16 46 04.4    ~1JN2 20.9 GVNEOCPK93
     CCNG6P2  C2025 01 20.30394407 29 18.009+16 48 18.09   ~1K9l 20.89wXNEOCPF52
     CCNG6P2  C2025 01 20.31555007 29 16.870+16 48 21.20   ~1K8l 21.5 RVNEOCP691
     CCNG6P2  C2025 01 20.32485407 29 16.050+16 48 24.80   ~1K8l 21.2 RVNEOCP691
     CCNG6P2  C2025 01 20.32688307 29 15.999+16 48 26.10   ~1K9l 21.75wXNEOCPF52
     CCNG6P2  C2025 01 20.33416007 29 15.250+16 48 27.60   ~1K8l 21.0 RVNEOCP691
     CCNG6P2  C2025 01 20.33834807 29 14.989+16 48 29.86   ~1K9l 21.52wXNEOCPF52
     CCNG6P2 !C2025 01 24.24510 07 23 36.29 +17 10 35.9    ~1O6V 20.9 GVNEOCP673
     CCNG6P2 !C2025 01 24.25165 07 23 35.77 +17 10 38.0    ~1O6V       VNEOCP673
     CCNG6P2 4C2025 01 28.46094 07 17 29.28 +17 34 27.5    ~1SL2 20.8 GVNEOCPQ63
     CCNG6P2 4C2025 01 28.46472 07 17 28.95 +17 34 28.8    ~1SL2 21.1 GVNEOCPQ63
     CCNG6P2 !C2025 01 30.34701 07 14 45.27 +17 45 00.5    ~1U92 21.5 GVNEOCP673
     CCNG6P2 !C2025 01 30.35381 07 14 44.69 +17 45 02.6    ~1U92       VNEOCP673
     CCNG6P2 !C2025 01 31.23046 07 13 28.91 +17 49 56.9    ~1V62 21.2 GVNEOCP673
     CCNG6P2 !C2025 01 31.23689 07 13 28.30 +17 49 58.5    ~1V62       VNEOCP673
     CCNG6P2 KB2025 01 31.90606 07 12 30.449+17 53 41.50   ~1VNl 20.0 GXNEOCPL38
     CCNG6P2 KB2025 01 31.92677 07 12 28.654+17 53 49.24   ~1VNl 20.0 GXNEOCPL38
     CCNG6P2 KB2025 02 01.81950 07 11 11.79 +17 58 46.1    ~2292       XNEOCPM45
     CCNG6P2 KB2025 02 01.83921 07 11 10.123+17 58 52.72   ~21NV 20.1 GXNEOCPL38
     CCNG6P2 KB2025 02 01.84120 07 11 09.934+17 58 53.54   ~21NV 20.9 GXNEOCPL38
     CCNG6P2 KB2025 02 01.84628 07 11 09.50 +17 58 55.7    ~2292 20.8 GXNEOCPM45
     CCNG6P2 KB2025 02 01.86201 07 11 08.155+17 59 00.35   ~21NV 21.0 GXNEOCPL38
     CCNG6P2 KB2025 02 01.87605 07 11 06.91 +17 59 04.9    ~2292 20.7 GXNEOCPM45
     CCNG6P2 KB2025 02 01.94501507 11 00.97 +17 59 27.8    ~21Nl 21.0 GVNEOCPI93
     CCNG6P2 KB2025 02 01.95985307 10 59.68 +17 59 33.2    ~21Nl 21.4 GVNEOCPI93
     CCNG6P2 KB2025 02 01.97431707 10 58.45 +17 59 38.2    ~21Nl 20.8 GVNEOCPI93
     CCNG6P2 KC2025 02 06.13555907 05 04.410+18 22 27.50   ~263l       VNEOCPI52
     CCNG6P2 KC2025 02 06.13865207 05 04.120+18 22 29.00   ~263l 22.29GVNEOCPI52
     CCNG6P2 KC2025 02 06.14176407 05 03.820+18 22 29.60   ~263l       VNEOCPI52
     CCNG6P2 KC2025 02 06.14487907 05 03.620+18 22 30.90   ~263l 22.33GVNEOCPI52

Station data:
(204) Schiaparelli Observatory  (N45.868292 E8.769720)  Italy.  Observer L.
   Buzzi. 0.84-m f/3.5 reflector + CCD.
(673) Table Mountain Observatory, Wrightwood  (N34.381485 W117.682170)
   US/California.  Observers J. Chesley, J. Pittichova. Measurer W. M. Owen
   Jr. 0.61-m f/16 reflector + CCD.
(691) Steward Observatory, Kitt Peak - Spacewatch  (N31.962174 W111.600327)
   US/Arizona.  Observer J. V. Scotti. 0.9-m f/3 reflector + CCD.
(B74) Santa Maria de Montmagastrell  (N41.720158 E1.105360)  Spain.  Observer
   J. M. Bosch. 0.4-m f/1.2 Schmidt-Cassegrain + CCD.
(F51) Pan-STARRS 1, Haleakala  (N20.707234 W156.255910)  US/Hawaii.
   Observers J. Bulger, T. Lowe, A. Schultz, M. Willman. Measurers K.
   Chambers, S. Chastel, T. de Boer, L. Denneau, J. Fairlamb, H. Flewelling,
   M. Huber, C.-C. Lin, E. Magnier, Y. Ramanjooloo, R. Wainscoat, R. Weryk.
   1.8-m Ritchey-Chrétien + CCD.
(F52) Pan-STARRS 2, Haleakala  (N20.707382 W156.255910)  US/Hawaii.
   Observers J. Bulger, T. Dukes, T. Lowe, A. Schultz, M. Willman. Measurers
   K. Chambers, S. Chastel, T. de Boer, L. Denneau, J. Fairlamb, H.
   Flewelling, M. Huber, C.-C. Lin, E. Magnier, Y. Ramanjooloo, R. Wainscoat,
   R. Weryk. 1.8-m Ritchey-Chrétien + CCD.
(G96) Mt. Lemmon Survey  (N32.442729 W110.788720)  US/Arizona.  Observer E.
   J. Christensen.  + 10K CCD.
(I52) Steward Observatory, Mt. Lemmon Station  (N32.442570 W110.788920)
   US/Arizona.  Observers T. A. Pruyne, B. M. Africano, E. J. Christensen, G.
   A. Farneth, D. C. Fuls, A. R. Gibbs, A. D. Grauer, H. Gröller, J. A.
   Johnson, R. A. Kowalski, S. M. Larson, G. J. Leonard, D. Rankin, R. L.
   Seaman, F. C. Shelly, K. W. Wierzchoś. 1.0-m prime focus + CCD.
(I93) St Pardon de Conques  (N44.558670 W0.202960)  France.  Observers F.
   Losse, W. D'Anna. Measurer F. Losse. 0.40-m f/3.7 reflector + CCD.
(J13) La Palma-Liverpool Telescope  (N28.762514 W17.879200)  Canary Islands
   (Spain).  Observer F. D. Romanov. Measurers C. Barache, S. Bouquillon, T.
   Carlucci, F. Taris. 2.0-m f/10 Ritchey-Chrétien + CCD.
(K93) Sutherland-LCOGT C  (S32.380667 E20.810110)  South Africa.  Observer R.
   Miles. 1.0-m f/8.0 Ritchey-Chrétien + CCD.
(L06) Sormano 2 Observatory, Bellagio Via Lattea  (N45.970100 E9.254030)
   Italy.  Observer G. Ventre. Measurers G. Ventre, P. Sicoli. 0.28-m f/10
   reflector + CCD.
(L38) Gartensternwarte Schafsweide, Sehlde  (N52.095274 E9.699970)  Germany.
   Observer A. Opitz. 0.35-m f/4.6 Newton + CCD.
(M45) Starhopper Observatory, Sfantu Gheorghe  (N45.865494 E25.768890)
   Romania.  Observer F. Ursache. 0.41-m f/7.5 reflector + CMO.
(Q63) Siding Spring-LCO A  (S31.273000 E149.070640)  Australia/NSW.
   Observers T. Lister, S. Greenstreet, E. Gomez. 1.0-m f/8 Ritchey-Chrétien
   + CCD.
(T12) Mauna Kea-UH/Tholen NEO Follow-Up (2.24-m)  (N19.822991 W155.469434)
   US/Hawaii.  Observer R. Weryk. 2.24-m f/10.1 University of Hawaii
   reflector.

Orbital elements:  CCNG6P2
   Perihelion 2025 Nov 8.44537 +/- 0.0047 TT = 10:41:19 (JD 2460987.94537)
Epoch 2025 Feb  6.0 TT = JDT 2460712.5   Earth MOID: 0.3094   Ju: 0.5698
M 359.81034529 +/- 0.0029           Ve: 0.0685                   AutoNEOCP
n   0.00068853 +/- 1.08e-5          Peri.  132.99680 +/- 0.009
a 127.013714 +/- 1.3                Node   108.09885 +/- 0.0008
e   0.9958348 +/- 4.23e-5           Incl.  143.62709 +/- 0.0041
P1431.44915                H 15.39  G  0.15   U  5.1
q 0.52902782 +/- 0.000145    Q 253.498401 +/- 2.6         (J2000 ecliptic)
